Showing default

MEZNSAT, 46489

Orbit data source: Space-Track

MEZNSAT, 46489 is an Emirian payload satellite in LEO that was launched on Mon, 28 Sep 2020 UTC via a SOYUZ-2-1B launch vehicle from the Plesetsk Missile And Space Complex (PKMTR). Payloads include a variety of satellites, spacecraft, and rockets equipped with specific instruments for various scientific and technological missions. These include communications satellites like Starlink; space stations such as the ISS; scientific satellites like the Hubble; Earth observation satellites from companies like Planet Labs, Umbra, and HawkEye 360; GPS; miniature CubeSats for education and research; and military/defense satellites.

Loading next visibility...
MEZNSAT details
Identifier
46489, 2020-068D
Orbit
LEO
Last TLE update14 hours ago
Origin
Flag of AEAURAK/MASDAR (AE / UAE)
ManufacturerMASDAR/AURAK
MissionOperational Amateur Science
Bus & MotorCUBESAT 3U, Unknown motor
Mass5 kg wet, 5 kg dry
Launch date (UTC)
2020-09-28 (4 years ago)
Launch vehicle
SOYUZ-2-1B
Launch site
Plesetsk Missile And Space Complex (PKMTR)
Object type
Payload
Rocket body
Debris
Shape & HBRBox, Unknown HBR
Radar Cross Section0.035 m², Small (<0.1 m²)

Expand to show TLE details & history

TLE from 14 hours ago
0 MEZNSAT
1 46489U 20068D   24336.90624126  .00079525  00000-0  16743-2 0  9996
2 46489  97.8238 312.5679 0012457  71.2176 289.0422 15.44911710230483
Epoch: 2024-12-01T21:44Z
Definitive object data (Epoch: 2024-12-01T21:44:59.244Z)
Latitude-0.00002°
Longitude-84.91668°
Altitude431.99 km
Speed7.654 km/s
True Right ascension20h 50m 16s
True Declination0° 00' 00"
Sunlit
Object was in daylight at TLE epoch
Visualization TLE readout
Latitude60.85282°
Longitude-98.46025°
Altitude433.363 km
Speed7.662 km/s
Apparent Right ascension21h 02m 26s
Apparent Declination13° 03' 57"
Sunlit
Object is in daylight
Visualization observer readout
Local Sidereal Time09:47:08
Azimuth13.495° NNE
Elevation-36.008°
Doppler factor1
Orbital elements
Apogee altitude437.068 km
Perigee altitude420.11 km
Semi-major axis6,806.726 km
Eccentricity0.0012457
Inclination97.8238°
RAAN312.5679°
Arg. of periapsis71.2176°
True anomaly288.9072°
Mean anomaly289.0422°
Eccentric anomaly288.9747°
Mean motion3.86488 °/min
BSTAR0.0016743
Orbital period93.15 mins
Loading maneuver chart data...
Loading historical data...
Loading historical data...
Loading historical data...
Loading historical data...
Loading historical data...
Loading historical data...
Loading historical data...

MEZNSAT Visibility forecast

Observer location: undefined°, undefined

Span
Click to sort rows by Start time (UTC) header in descending order
Start Az.
Max El. time (UTC)
Max El. Az.
Max El.
End time (UTC)
End Az.
4 mins2024-12-02 22:46:19.010Z184.941° SSW2024-12-02 22:47:19.010Z226.837° WSW42.023°2024-12-02 22:50:19.010Z341.119° N
5 mins2024-12-03 11:37:19.010Z4.537° NNE2024-12-03 11:39:19.010Z275.326° WNW43.369°2024-12-03 11:42:19.010Z200.33° SSW
|